This is the latest recevied weather packets stored in our database for station/object IN3MWE-10. If no packets are shown the sender has not sent any weather packets the latest 10 day(s).
| Time | Temp. | Humidity | Pressure | Rain* | Wind** | Luminosity | Snow |
|---|---|---|---|---|---|---|---|
| 1787381416 | 16.67° C | 96% | 980.8 hPa | - | - | - | - |
| 1787380516 | 16.67° C | 100% | 980.9 hPa | - | - | - | - |
| 1787379616 | 16.67° C | 99% | 980.9 hPa | - | - | - | - |
| 1787378716 | 15.56° C | 100% | 980.7 hPa | - | - | - | - |
| 1787377816 | 15.56° C | 100% | 980.7 hPa | - | - | - | - |
| 1787376916 | 15° C | 100% | 980.7 hPa | - | - | - | - |
| 1787376015 | 14.44° C | 100% | 980.6 hPa | - | - | - | - |
| 1787375115 | 14.44° C | 100% | 980.4 hPa | - | - | - | - |
| 1787374215 | 13.89° C | 100% | 980.5 hPa | - | - | - | - |
| 1787373315 | 13.89° C | 100% | 980.1 hPa | - | - | - | - |
| 1787372415 | 13.89° C | 100% | 980 hPa | - | - | - | - |
| 1787371515 | 13.89° C | 100% | 979.9 hPa | - | - | - | - |
| 1787370615 | 14.44° C | 100% | 979.8 hPa | - | - | - | - |
| 1787369714 | 13.89° C | 100% | 979.7 hPa | - | - | - | - |
| 1787368813 | 14.44° C | 100% | 979.7 hPa | - | - | - | - |
| 1787367913 | 13.89° C | 100% | 979.6 hPa | - | - | - | - |
| 1787367027 | 14.44° C | 100% | 979.5 hPa | - | - | - | - |
| 1787366127 | 14.44° C | 100% | 979.6 hPa | - | - | - | - |
| 1787365227 | 14.44° C | 100% | 979.5 hPa | - | - | - | - |
| 1787364326 | 15° C | 100% | 979.4 hPa | - | - | - | - |
| 1787363426 | 15° C | 100% | 979.3 hPa | - | - | - | - |
| 1787362526 | 15° C | 100% | 979.1 hPa | - | - | - | - |
| 1787361626 | 15.56° C | 100% | 979.1 hPa | - | - | - | - |
| 1787360726 | 15.56° C | 100% | 978.8 hPa | - | - | - | - |
| 1787359826 | 15.56° C | 100% | 978.7 hPa | - | - | - | - |
* Rain since midnight (hover to see other rain measurements)
** Current wind speed in m/s (hover to see current wind gust speed)